Starlink 2109

operational
NORAD ID: 47388 Int'l Des: 2021-005 Owner: SPXS Country: US Constellation: starlink
LEOCIRCULARSTARLINK_TYPE

Über Starlink 2109

Beschreibung wird geladen...

Live-Position

3D-Globus wird geladen...

Nächste Überflüge

Höhenverlauf

Altitude vs Time

uPlot chart will show altitude changes over time

Zweizeiliger Elementsatz

1 47388U 21005AR 26063.10094056 .00000465 00000-0 50086-4 0 9998
2 47388 53.0548 86.7083 0001405 93.0829 267.0321 15.06395420282198
Epoch: 4. März 2026 • Age: 17 hours

Aktueller Status

Höhe 549.9 km
Geschwindigkeit 7.59 km/s
Subsatellitenpunkt -8.70°S, 24.42°E
Startdatum 20. Jan. 2021
Alter 5.1 years
Typ internet

Technische Details

Klassifizierung Payload
Masse 260.00 kg
Trockenmasse 248.00 kg
Gesamtmasse 260.00 kg
Länge 0.20 m
Durchmesser 2.80 m
Spannweite 9.00 m
Form Box + pan
Hersteller SPXS
Bus-Typ Starlink
Phasenstatus In Orbit
Besitzer/Staat SPXS/US

Große Konstellationen

Loading constellations...